Flag for Norway Weather past 2 weeks in Elverum, Norway

Now
34 °F

Chilly.


Feels Like: 34 °F
Forecast: 46 / 68 °F
Wind: 1 mph from Northwest

Location: Haugedalshogda

Current Time: Aug 3, 2015 at 4:45:26 AM

Latest Report: Aug 3, 2015 at 4:00 AM


Visibility: N/A

Pressure: 30.20 "Hg

Humidity: 95%

Dew point: 33 °F

Location of ElverumLocation

Historic Weather in Elverum — Graph

°F

Elverum temperature yesterday

Maximum temperature yesterday: 63 °F (at 1:00 PM)
Minimum temperature yesterday: 45 °F (at 10:00 PM)
Average temperature yesterday: 53 °F

Past Weeks' High & Low Weather Summary

 TemperatureHumidityPressure
High71 °F (Jul 22, 2:00 PM)96% (Jul 22, 3:00 AM)30.18 "Hg (Jul 22, 3:00 AM)
Low32 °F (Jul 25, 4:00 AM)38% (Jul 24, 4:00 PM)29.38 "Hg (Jul 26, 7:00 PM)
Average55 °F73%29.69 "Hg
* Reported Jul 19 3:00 AM — Aug 3 3:00 AM, Elverum, Weather by CustomWeather, © 2015

Note: Actual official high and low records may vary slightly from our data, if they occured in-between our weather recording intervals... More about our weather records

Advertising

Elverum weather history for previous 24 hours

 ConditionsComfort  
Time TempWeatherWind HumidityBarometerVisibility
3:00 AM
Mon, Aug 3
34 °FChilly.1 mph96%30.18 "HgN/A
2:00 AM35 °FChilly.1 mph94%30.17 "HgN/A
1:00 AM35 °FChilly.No wind93%30.16 "HgN/A
12:00 AM38 °FChilly.1 mph92%30.14 "HgN/A
10:00 PM
Sun, Aug 2
45 °FCool.1 mph86%30.09 "HgN/A
9:00 PM54 °FCool.2 mph61%30.04 "HgN/A
8:00 PM58 °FRefreshingly cool.3 mph52%30.01 "HgN/A
7:00 PM59 °FRefreshingly cool.5 mph52%29.98 "HgN/A
6:00 PM58 °FCool.3 mph65%29.97 "HgN/A
5:00 PM60 °FCool.2 mph65%29.95 "HgN/A
4:00 PM58 °FCool.2 mph62%29.95 "HgN/A
3:00 PM54 °FCool.2 mph80%29.96 "HgN/A
2:00 PM51 °FCool.5 mph83%29.95 "HgN/A
1:00 PM63 °FMild.5 mph51%29.89 "HgN/A
12:00 PM59 °FCool.2 mph64%29.90 "HgN/A
11:00 AM54 °FCool.3 mph81%29.91 "HgN/A
10:00 AM52 °FCool.3 mph86%29.91 "HgN/A
9:00 AM51 °FCool.3 mph88%29.90 "HgN/A
8:00 AM51 °FCool.3 mph90%29.91 "HgN/A
7:00 AM50 °FCool.1 mph93%29.93 "HgN/A
6:00 AM50 °FCool.2 mph93%29.94 "HgN/A
5:00 AM50 °FCool.2 mph93%29.94 "HgN/A
4:00 AM49 °FCool.2 mph94%29.96 "HgN/A
Weather by CustomWeather, © 2015

See weather overviewHow to use our weather pages